VINASAT-2

Last updated on Aug. 14, 2020, 5:30 a.m. UTC

1 38332U 12023B   20226.73313170 -.00000327  00000-0  00000+0 0  9996
2 38332   0.0556 283.8594 0001930 230.7809 203.7417  1.00270804 30221
UTC
Height (km)
Latitude
Longitude
Inclination
Orbital Period
UTC large
Height (km)
Speed (km/s)
/
Latitude / Longitude
Inclination (degrees)
Orbital Period (minutes)
Azimuth
Elevation
Range (km)
Doppler Factor
iOS Compass Heading
iOS Angle

Next 30 passes for location: Hong Kong

Rise time Rise Azimuth (degrees) Set time Set Azimuth (degrees) Duration Max altitude (degrees)

No matching passes for this satellites